Time,TemperatureF,DewpointF,PressureIn,WindDirection,WindDirectionDegrees,WindSpeedMPH,WindSpeedGustMPH,Humidity,HourlyPrecipIn,Conditions,Clouds,dailyrainin,SolarRadiationWatts/m^2,SoftwareType,DateUTC
2013-05-09 00:07:00,53.2,50.0,30.09,WSW,248,0.0,0.0,89,0.00,,,0.00,0,Wunderground v.1.15,2013-05-09 07:07:00,
2013-05-09 00:17:00,52.9,49.7,30.09,WSW,248,0.0,0.0,89,0.00,,,0.00,0,Wunderground v.1.15,2013-05-09 07:17:00,
2013-05-09 00:27:00,52.8,49.6,30.09,WSW,248,0.0,0.0,89,0.00,,,0.00,0,Wunderground v.1.15,2013-05-09 07:27:00,
2013-05-09 00:37:00,52.5,49.4,30.09,WSW,253,0.0,0.0,89,0.00,,,0.00,0,Wunderground v.1.15,2013-05-09 07:37:00,
2013-05-09 00:47:00,52.3,49.2,30.09,WSW,253,0.0,0.0,89,0.00,,,0.00,0,Wunderground v.1.15,2013-05-09 07:47:00,
2013-05-09 00:57:00,52.2,49.1,30.09,WSW,253,0.0,0.0,89,0.00,,,0.00,0,Wunderground v.1.15,2013-05-09 07:57:00,
2013-05-09 01:08:00,52.0,49.2,30.10,WSW,253,0.0,0.0,90,0.00,,,0.00,0,Wunderground v.1.15,2013-05-09 08:08:00,
2013-05-09 01:17:00,51.9,49.4,30.10,WSW,253,0.0,0.0,91,0.00,,,0.00,0,Wunderground v.1.15,2013-05-09 08:17:00,
2013-05-09 01:28:00,51.7,49.2,30.10,WSW,253,0.0,0.0,91,0.00,,,0.00,0,Wunderground v.1.15,2013-05-09 08:28:00,
2013-05-09 01:38:00,51.4,49.2,30.10,WSW,253,0.0,1.0,92,0.00,,,0.00,0,Wunderground v.1.15,2013-05-09 08:38:00,
2013-05-09 01:48:00,51.3,49.1,30.10,WSW,253,0.0,0.0,92,0.00,,,0.00,0,Wunderground v.1.15,2013-05-09 08:48:00,
2013-05-09 01:58:00,51.3,49.1,30.10,WSW,253,0.0,0.0,92,0.00,,,0.00,0,Wunderground v.1.15,2013-05-09 08:58:00,
2013-05-09 02:08:00,51.1,48.9,30.11,WSW,251,0.0,0.0,92,0.00,,,0.00,0,Wunderground v.1.15,2013-05-09 09:08:00,
2013-05-09 02:21:00,51.0,49.0,30.11,WSW,253,0.0,0.0,93,0.00,,,0.00,0,Wunderground v.1.15,2013-05-09 09:21:00,
2013-05-09 02:27:00,51.0,49.0,30.11,WSW,253,0.0,0.0,93,0.00,,,0.00,0,Wunderground v.1.15,2013-05-09 09:27:00,
2013-05-09 02:41:00,50.7,49.0,30.12,WSW,253,0.0,0.0,94,0.00,,,0.00,0,Wunderground v.1.15,2013-05-09 09:41:00,
2013-05-09 02:47:00,50.7,49.0,30.12,WSW,253,0.0,0.0,94,0.00,,,0.00,0,Wunderground v.1.15,2013-05-09 09:47:00,
2013-05-09 02:57:00,50.5,48.8,30.12,WSW,253,0.0,0.0,94,0.00,,,0.00,0,Wunderground v.1.15,2013-05-09 09:57:00,
2013-05-09 03:07:00,50.5,48.8,30.12,WSW,251,0.0,0.0,94,0.00,,,0.00,0,Wunderground v.1.15,2013-05-09 10:07:00,
2013-05-09 03:17:00,50.4,48.7,30.12,WSW,251,0.0,0.0,94,0.00,,,0.00,0,Wunderground v.1.15,2013-05-09 10:17:00,
2013-05-09 03:27:00,50.2,48.8,30.12,WSW,251,0.0,0.0,95,0.00,,,0.00,0,Wunderground v.1.15,2013-05-09 10:27:00,
2013-05-09 03:38:00,50.1,48.7,30.13,WSW,251,0.0,0.0,95,0.00,,,0.00,0,Wunderground v.1.15,2013-05-09 10:38:00,
2013-05-09 03:47:00,49.9,48.5,30.13,WSW,251,0.0,0.0,95,0.00,,,0.00,0,Wunderground v.1.15,2013-05-09 10:47:00,
2013-05-09 03:58:00,49.8,48.4,30.13,WSW,251,0.0,0.0,95,0.00,,,0.00,0,Wunderground v.1.15,2013-05-09 10:58:00,
2013-05-09 04:08:00,49.8,48.7,30.13,WSW,251,0.0,0.0,96,0.00,,,0.00,0,Wunderground v.1.15,2013-05-09 11:08:00,
2013-05-09 04:18:00,49.5,48.4,30.13,WSW,250,0.0,0.0,96,0.00,,,0.00,0,Wunderground v.1.15,2013-05-09 11:18:00,
2013-05-09 04:28:00,49.8,48.7,30.13,WSW,251,1.0,1.0,96,0.00,,,0.00,0,Wunderground v.1.15,2013-05-09 11:28:00,
2013-05-09 04:38:00,49.9,48.8,30.13,WSW,251,1.0,2.0,96,0.00,,,0.00,0,Wunderground v.1.15,2013-05-09 11:38:00,
2013-05-09 04:48:00,49.9,48.8,30.14,WSW,251,0.0,0.0,96,0.00,,,0.00,0,Wunderground v.1.15,2013-05-09 11:48:00,
2013-05-09 04:58:00,49.9,48.8,30.14,WSW,251,0.0,0.0,96,0.00,,,0.00,0,Wunderground v.1.15,2013-05-09 11:58:00,
2013-05-09 05:08:00,50.1,49.0,30.14,WSW,251,0.0,0.0,96,0.00,,,0.00,0,Wunderground v.1.15,2013-05-09 12:08:00,
2013-05-09 05:17:00,50.2,49.1,30.14,WSW,251,0.0,0.0,96,0.00,,,0.00,0,Wunderground v.1.15,2013-05-09 12:17:00,
2013-05-09 05:27:00,50.4,49.3,30.14,WSW,251,0.0,0.0,96,0.00,,,0.00,0,Wunderground v.1.15,2013-05-09 12:27:00,
2013-05-09 05:37:00,50.4,49.3,30.14,WSW,251,0.0,0.0,96,0.00,,,0.00,0,Wunderground v.1.15,2013-05-09 12:37:00,
2013-05-09 05:47:00,50.4,49.3,30.14,WSW,251,0.0,1.0,96,0.00,,,0.00,5,Wunderground v.1.15,2013-05-09 12:47:00,
2013-05-09 06:02:00,50.4,49.0,30.15,WSW,251,1.0,1.0,95,0.00,,,0.00,9,Wunderground v.1.15,2013-05-09 13:02:00,
2013-05-09 06:07:00,50.4,49.0,30.15,WSW,251,0.0,1.0,95,0.00,,,0.00,11,Wunderground v.1.15,2013-05-09 13:07:00,
2013-05-09 06:17:00,50.2,48.8,30.15,WSW,251,1.0,1.0,95,0.00,,,0.00,16,Wunderground v.1.15,2013-05-09 13:17:00,
2013-05-09 06:32:00,50.2,48.8,30.15,WSW,251,1.0,1.0,95,0.00,,,0.00,21,Wunderground v.1.15,2013-05-09 13:32:00,
2013-05-09 06:37:00,50.1,48.7,30.15,WSW,251,0.0,1.0,95,0.00,,,0.00,23,Wunderground v.1.15,2013-05-09 13:37:00,
2013-05-09 06:48:00,49.9,48.5,30.16,WSW,251,1.0,1.0,95,0.00,,,0.00,32,Wunderground v.1.15,2013-05-09 13:48:00,
2013-05-09 06:58:00,49.8,48.4,30.16,WSW,251,1.0,2.0,95,0.00,,,0.00,37,Wunderground v.1.15,2013-05-09 13:58:00,
2013-05-09 07:08:00,49.8,48.7,30.17,WSW,251,1.0,1.0,96,0.00,,,0.00,42,Wunderground v.1.15,2013-05-09 14:08:00,
2013-05-09 07:18:00,49.8,48.7,30.17,WSW,251,1.0,1.0,96,0.00,,,0.00,44,Wunderground v.1.15,2013-05-09 14:18:00,
2013-05-09 07:28:00,49.8,48.7,30.17,WSW,251,0.0,2.0,96,0.00,,,0.00,53,Wunderground v.1.15,2013-05-09 14:28:00,
2013-05-09 07:38:00,49.6,48.5,30.17,WSW,253,1.0,2.0,96,0.00,,,0.00,60,Wunderground v.1.15,2013-05-09 14:38:00,
2013-05-09 07:48:00,49.6,48.5,30.17,WSW,251,1.0,1.0,96,0.00,,,0.00,76,Wunderground v.1.15,2013-05-09 14:48:00,
2013-05-09 07:58:00,49.8,48.7,30.17,WSW,253,1.0,2.0,96,0.00,,,0.00,88,Wunderground v.1.15,2013-05-09 14:58:00,
2013-05-09 08:08:00,49.8,48.7,30.17,WSW,253,2.0,3.0,96,0.00,,,0.00,107,Wunderground v.1.15,2013-05-09 15:08:00,
2013-05-09 08:17:00,49.8,49.0,30.17,WSW,253,1.0,1.0,97,0.00,,,0.00,120,Wunderground v.1.15,2013-05-09 15:17:00,
2013-05-09 08:27:00,50.1,49.3,30.17,WSW,251,0.0,0.0,97,0.00,,,0.00,100,Wunderground v.1.15,2013-05-09 15:27:00,
2013-05-09 08:42:00,50.2,49.4,30.17,WSW,253,0.0,0.0,97,0.00,,,0.00,102,Wunderground v.1.15,2013-05-09 15:42:00,
2013-05-09 08:47:00,50.4,49.6,30.17,WSW,253,0.0,0.0,97,0.00,,,0.00,109,Wunderground v.1.15,2013-05-09 15:47:00,
2013-05-09 08:57:00,50.4,49.6,30.17,WSW,253,0.0,2.0,97,0.00,,,0.00,114,Wunderground v.1.15,2013-05-09 15:57:00,
2013-05-09 09:07:00,50.5,49.7,30.17,WSW,253,0.0,0.0,97,0.00,,,0.00,109,Wunderground v.1.15,2013-05-09 16:07:00,
2013-05-09 09:17:00,50.7,49.9,30.17,WSW,253,1.0,1.0,97,0.00,,,0.00,116,Wunderground v.1.15,2013-05-09 16:17:00,
2013-05-09 09:27:00,50.8,50.0,30.17,WSW,253,0.0,1.0,97,0.00,,,0.00,134,Wunderground v.1.15,2013-05-09 16:27:00,
2013-05-09 09:38:00,50.8,49.7,30.16,WSW,253,0.0,1.0,96,0.00,,,0.00,151,Wunderground v.1.15,2013-05-09 16:38:00,
2013-05-09 09:48:00,51.1,50.0,30.16,WSW,253,0.0,0.0,96,0.00,,,0.00,164,Wunderground v.1.15,2013-05-09 16:48:00,
2013-05-09 09:58:00,51.6,50.5,30.16,WSW,253,0.0,0.0,96,0.00,,,0.00,165,Wunderground v.1.15,2013-05-09 16:58:00,
2013-05-09 10:08:00,51.7,50.3,30.16,WSW,253,1.0,1.0,95,0.00,,,0.00,151,Wunderground v.1.15,2013-05-09 17:08:00,
2013-05-09 10:18:00,52.0,50.3,30.17,WSW,254,0.0,0.0,94,0.00,,,0.00,150,Wunderground v.1.15,2013-05-09 17:18:00,
2013-05-09 10:28:00,51.4,49.7,30.17,WSW,253,2.0,2.0,94,0.00,,,0.00,151,Wunderground v.1.15,2013-05-09 17:28:00,
2013-05-09 10:38:00,51.3,49.9,30.17,WSW,253,2.0,2.0,95,0.00,,,0.00,141,Wunderground v.1.15,2013-05-09 17:38:00,
2013-05-09 10:48:00,51.9,50.5,30.17,WSW,251,1.0,1.0,95,0.00,,,0.00,148,Wunderground v.1.15,2013-05-09 17:48:00,
2013-05-09 10:58:00,52.0,50.3,30.17,WSW,251,1.0,1.0,94,0.00,,,0.00,167,Wunderground v.1.15,2013-05-09 17:58:00,
2013-05-09 11:08:00,52.3,50.3,30.17,WSW,253,1.0,1.0,93,0.00,,,0.00,181,Wunderground v.1.15,2013-05-09 18:08:00,
2013-05-09 11:21:00,52.8,50.5,30.16,WSW,251,0.0,0.0,92,0.00,,,0.00,192,Wunderground v.1.15,2013-05-09 18:21:00,
2013-05-09 11:27:00,52.9,50.3,30.16,WSW,253,1.0,1.0,91,0.00,,,0.00,204,Wunderground v.1.15,2013-05-09 18:27:00,
2013-05-09 11:41:00,53.3,50.4,30.16,WSW,253,1.0,1.0,90,0.00,,,0.00,223,Wunderground v.1.15,2013-05-09 18:41:00,
2013-05-09 11:47:00,53.6,50.4,30.17,WSW,247,1.0,1.0,89,0.00,,,0.00,246,Wunderground v.1.15,2013-05-09 18:47:00,
2013-05-09 11:57:00,53.8,50.3,30.17,WSW,241,1.0,3.0,88,0.00,,,0.00,282,Wunderground v.1.15,2013-05-09 18:57:00,
2013-05-09 12:07:00,53.9,50.4,30.16,WSW,241,1.0,3.0,88,0.00,,,0.00,294,Wunderground v.1.15,2013-05-09 19:07:00,
2013-05-09 12:22:00,54.1,50.6,30.16,WSW,256,1.0,1.0,88,0.00,,,0.00,331,Wunderground v.1.15,2013-05-09 19:22:00,
2013-05-09 12:32:00,54.7,50.6,30.16,WSW,256,1.0,1.0,86,0.00,,,0.00,362,Wunderground v.1.15,2013-05-09 19:32:00,
2013-05-09 12:38:00,55.3,50.5,30.16,WSW,256,1.0,2.0,84,0.00,,,0.00,413,Wunderground v.1.15,2013-05-09 19:38:00,
2013-05-09 12:48:00,55.6,50.5,30.15,WSW,256,1.0,1.0,83,0.00,,,0.00,593,Wunderground v.1.15,2013-05-09 19:48:00,
2013-05-09 12:57:00,56.5,50.7,30.15,WSW,256,1.0,1.0,81,0.00,,,0.00,633,Wunderground v.1.15,2013-05-09 19:57:00,
2013-05-09 13:08:00,58.0,51.5,30.15,WSW,254,1.0,2.0,79,0.00,,,0.00,873,Wunderground v.1.15,2013-05-09 20:08:00,
2013-05-09 13:22:00,59.9,51.2,30.15,SW,217,1.0,2.0,73,0.00,,,0.00,848,Wunderground v.1.15,2013-05-09 20:22:00,
2013-05-09 13:28:00,59.8,51.5,30.15,SW,223,1.0,2.0,74,0.00,,,0.00,855,Wunderground v.1.15,2013-05-09 20:28:00,
2013-05-09 13:38:00,58.9,50.6,30.15,NW,316,2.0,7.0,74,0.00,,,0.00,846,Wunderground v.1.15,2013-05-09 20:38:00,
2013-05-09 13:48:00,59.3,51.0,30.14,West,268,2.0,2.0,74,0.00,,,0.00,838,Wunderground v.1.15,2013-05-09 20:48:00,
2013-05-09 13:58:00,60.1,51.0,30.14,West,280,2.0,3.0,72,0.00,,,0.00,838,Wunderground v.1.15,2013-05-09 20:58:00,
2013-05-09 14:08:00,60.9,51.8,30.14,WNW,285,1.0,1.0,72,0.00,,,0.00,830,Wunderground v.1.15,2013-05-09 21:08:00,
2013-05-09 14:17:00,61.8,52.3,30.13,WNW,282,1.0,1.0,71,0.00,,,0.00,818,Wunderground v.1.15,2013-05-09 21:17:00,
2013-05-09 14:27:00,62.7,51.6,30.13,WSW,250,1.0,1.0,67,0.00,,,0.00,811,Wunderground v.1.15,2013-05-09 21:27:00,
2013-05-09 14:37:00,62.7,51.6,30.13,WSW,258,1.0,1.0,67,0.00,,,0.00,799,Wunderground v.1.15,2013-05-09 21:37:00,
2013-05-09 14:47:00,62.9,52.6,30.12,WSW,253,2.0,5.0,69,0.00,,,0.00,785,Wunderground v.1.15,2013-05-09 21:47:00,
2013-05-09 14:57:00,63.9,52.7,30.12,WSW,243,2.0,2.0,67,0.00,,,0.00,769,Wunderground v.1.15,2013-05-09 21:57:00,
2013-05-09 15:07:00,63.7,52.1,30.12,WSW,250,3.0,3.0,66,0.00,,,0.00,757,Wunderground v.1.15,2013-05-09 22:07:00,
2013-05-09 15:17:00,64.3,52.7,30.11,West,264,3.0,4.0,66,0.00,,,0.00,741,Wunderground v.1.15,2013-05-09 22:17:00,
2013-05-09 15:27:00,64.8,52.8,30.11,West,278,3.0,5.0,65,0.00,,,0.00,720,Wunderground v.1.15,2013-05-09 22:27:00,
2013-05-09 15:37:00,65.0,52.9,30.11,WSW,257,3.0,3.0,65,0.00,,,0.00,704,Wunderground v.1.15,2013-05-09 22:37:00,
2013-05-09 15:48:00,64.8,52.3,30.10,WSW,251,3.0,3.0,64,0.00,,,0.00,684,Wunderground v.1.15,2013-05-09 22:48:00,
2013-05-09 15:58:00,66.4,52.5,30.10,WSW,253,2.0,3.0,61,0.00,,,0.00,665,Wunderground v.1.15,2013-05-09 22:58:00,
2013-05-09 16:08:00,66.9,51.6,30.10,SW,226,2.0,2.0,58,0.00,,,0.00,642,Wunderground v.1.15,2013-05-09 23:08:00,
2013-05-09 16:18:00,67.8,52.0,30.09,SW,236,2.0,5.0,57,0.00,,,0.00,618,Wunderground v.1.15,2013-05-09 23:18:00,
2013-05-09 16:28:00,67.8,50.5,30.09,SSW,203,3.0,4.0,54,0.00,,,0.00,593,Wunderground v.1.15,2013-05-09 23:28:00,
2013-05-09 16:38:00,68.8,49.9,30.09,South,185,2.0,5.0,51,0.00,,,0.00,572,Wunderground v.1.15,2013-05-09 23:38:00,
2013-05-09 16:48:00,68.9,48.4,30.08,WNW,282,3.0,3.0,48,0.00,,,0.00,545,Wunderground v.1.15,2013-05-09 23:48:00,
2013-05-09 16:58:00,69.4,47.7,30.08,West,278,2.0,5.0,46,0.00,,,0.00,519,Wunderground v.1.15,2013-05-09 23:58:00,
2013-05-09 17:08:00,69.1,48.0,30.08,WNW,292,3.0,4.0,47,0.00,,,0.00,489,Wunderground v.1.15,2013-05-10 00:08:00,
2013-05-09 17:17:00,68.4,47.4,30.08,WNW,296,4.0,6.0,47,0.00,,,0.00,466,Wunderground v.1.15,2013-05-10 00:17:00,
2013-05-09 17:31:00,68.4,47.9,30.08,WNW,302,3.0,3.0,48,0.00,,,0.00,426,Wunderground v.1.15,2013-05-10 00:31:00,
2013-05-09 17:41:00,68.8,48.3,30.08,NW,323,4.0,7.0,48,0.00,,,0.00,396,Wunderground v.1.15,2013-05-10 00:41:00,
2013-05-09 17:47:00,68.9,47.8,30.08,NW,312,4.0,7.0,47,0.00,,,0.00,380,Wunderground v.1.15,2013-05-10 00:47:00,
2013-05-09 17:57:00,68.9,48.9,30.08,WNW,302,4.0,6.0,49,0.00,,,0.00,350,Wunderground v.1.15,2013-05-10 00:57:00,
2013-05-09 18:07:00,68.6,50.8,30.07,NNW,343,5.0,5.0,53,0.00,,,0.00,322,Wunderground v.1.15,2013-05-10 01:07:00,
2013-05-09 18:17:00,68.6,50.3,30.06,West,271,4.0,7.0,52,0.00,,,0.00,294,Wunderground v.1.15,2013-05-10 01:17:00,
2013-05-09 18:27:00,68.1,50.3,30.06,WNW,295,4.0,4.0,53,0.00,,,0.00,264,Wunderground v.1.15,2013-05-10 01:27:00,
2013-05-09 18:42:00,67.4,50.2,30.07,NW,306,4.0,4.0,54,0.00,,,0.00,222,Wunderground v.1.15,2013-05-10 01:42:00,
2013-05-09 18:48:00,67.4,49.7,30.06,WNW,296,4.0,8.0,53,0.00,,,0.00,208,Wunderground v.1.15,2013-05-10 01:48:00,
2013-05-09 18:57:00,67.3,49.6,30.06,WNW,287,3.0,6.0,53,0.00,,,0.00,181,Wunderground v.1.15,2013-05-10 01:57:00,
2013-05-09 19:08:00,66.3,49.6,30.06,SSW,205,5.0,5.0,55,0.00,,,0.00,153,Wunderground v.1.15,2013-05-10 02:08:00,
2013-05-09 19:22:00,65.8,50.1,30.06,WNW,284,4.0,6.0,57,0.00,,,0.00,118,Wunderground v.1.15,2013-05-10 02:22:00,
2013-05-09 19:28:00,65.5,49.9,30.06,WNW,301,4.0,7.0,57,0.00,,,0.00,42,Wunderground v.1.15,2013-05-10 02:28:00,
2013-05-09 19:38:00,65.3,50.6,30.06,WNW,296,2.0,2.0,59,0.00,,,0.00,35,Wunderground v.1.15,2013-05-10 02:38:00,
2013-05-09 19:48:00,64.5,50.3,30.06,WNW,292,2.0,2.0,60,0.00,,,0.00,30,Wunderground v.1.15,2013-05-10 02:48:00,
2013-05-09 19:58:00,63.7,50.4,30.06,WNW,282,2.0,2.0,62,0.00,,,0.00,42,Wunderground v.1.15,2013-05-10 02:58:00,
2013-05-09 20:08:00,62.3,50.4,30.06,NW,305,4.0,6.0,65,0.00,,,0.00,21,Wunderground v.1.15,2013-05-10 03:08:00,
2013-05-09 20:21:00,61.8,50.7,30.06,WNW,299,2.0,2.0,67,0.00,,,0.00,12,Wunderground v.1.15,2013-05-10 03:21:00,
2013-05-09 20:31:00,61.0,50.0,30.07,WNW,295,2.0,2.0,67,0.00,,,0.00,9,Wunderground v.1.15,2013-05-10 03:31:00,
2013-05-09 20:37:00,60.9,49.9,30.07,WNW,295,2.0,2.0,67,0.00,,,0.00,5,Wunderground v.1.15,2013-05-10 03:37:00,
2013-05-09 20:47:00,60.2,49.6,30.07,WNW,287,1.0,2.0,68,0.00,,,0.00,0,Wunderground v.1.15,2013-05-10 03:47:00,
2013-05-09 20:57:00,59.6,49.4,30.07,WNW,285,1.0,1.0,69,0.00,,,0.00,0,Wunderground v.1.15,2013-05-10 03:57:00,
2013-05-09 21:02:00,59.3,49.1,30.07,WNW,285,1.0,1.0,69,0.00,,,0.00,0,Wunderground v.1.15,2013-05-10 04:02:00,
2013-05-09 21:07:00,59.2,49.4,30.07,WNW,285,1.0,1.0,70,0.00,,,0.00,0,Wunderground v.1.15,2013-05-10 04:07:00,
2013-05-09 21:12:00,58.9,49.1,30.07,WNW,285,1.0,2.0,70,0.00,,,0.00,0,Wunderground v.1.15,2013-05-10 04:12:00,
2013-05-09 21:17:00,58.6,49.2,30.08,WNW,285,1.0,2.0,71,0.00,,,0.00,0,Wunderground v.1.15,2013-05-10 04:17:00,
2013-05-09 21:27:00,58.0,49.4,30.08,WNW,285,1.0,1.0,73,0.00,,,0.00,0,Wunderground v.1.15,2013-05-10 04:27:00,
2013-05-09 21:38:00,57.0,49.9,30.08,WNW,285,1.0,1.0,77,0.00,,,0.00,0,Wunderground v.1.15,2013-05-10 04:38:00,
2013-05-09 21:48:00,56.5,50.1,30.09,WNW,285,1.0,1.0,79,0.00,,,0.00,0,Wunderground v.1.15,2013-05-10 04:48:00,
2013-05-09 21:52:00,56.3,50.2,30.09,WNW,285,1.0,1.0,80,0.00,,,0.00,0,Wunderground v.1.15,2013-05-10 04:52:00,
2013-05-09 21:57:00,56.0,50.3,30.09,WNW,285,1.0,1.0,81,0.00,,,0.00,0,Wunderground v.1.15,2013-05-10 04:57:00,
2013-05-09 22:02:00,55.9,50.5,30.09,WNW,285,1.0,1.0,82,0.00,,,0.00,0,Wunderground v.1.15,2013-05-10 05:02:00,
2013-05-09 22:07:00,55.7,50.3,30.09,WNW,285,0.0,1.0,82,0.00,,,0.00,0,Wunderground v.1.15,2013-05-10 05:07:00,
2013-05-09 22:18:00,55.4,50.3,30.09,WNW,284,0.0,0.0,83,0.00,,,0.00,0,Wunderground v.1.15,2013-05-10 05:18:00,
2013-05-09 22:28:00,55.1,50.0,30.09,WNW,282,0.0,0.0,83,0.00,,,0.00,0,Wunderground v.1.15,2013-05-10 05:28:00,
2013-05-09 22:38:00,55.0,50.3,30.09,WNW,282,0.0,1.0,84,0.00,,,0.00,0,Wunderground v.1.15,2013-05-10 05:38:00,
2013-05-09 22:48:00,54.8,50.4,30.09,WNW,282,0.0,0.0,85,0.00,,,0.00,0,Wunderground v.1.15,2013-05-10 05:48:00,
2013-05-09 22:58:00,54.4,50.3,30.09,WNW,282,0.0,0.0,86,0.00,,,0.00,0,Wunderground v.1.15,2013-05-10 05:58:00,
2013-05-09 23:08:00,53.9,50.1,30.10,West,281,0.0,0.0,87,0.00,,,0.00,0,Wunderground v.1.15,2013-05-10 06:08:00,
2013-05-09 23:18:00,53.6,49.8,30.10,West,280,0.0,0.0,87,0.00,,,0.00,0,Wunderground v.1.15,2013-05-10 06:18:00,
2013-05-09 23:27:00,53.3,49.8,30.10,West,278,0.0,0.0,88,0.00,,,0.00,0,Wunderground v.1.15,2013-05-10 06:27:00,
2013-05-09 23:37:00,53.2,49.7,30.10,West,278,0.0,0.0,88,0.00,,,0.00,0,Wunderground v.1.15,2013-05-10 06:37:00,
2013-05-09 23:47:00,52.9,49.7,30.10,West,278,0.0,0.0,89,0.00,,,0.00,0,Wunderground v.1.15,2013-05-10 06:47:00,
2013-05-09 23:57:00,52.8,49.6,30.10,West,278,0.0,1.0,89,0.00,,,0.00,0,Wunderground v.1.15,2013-05-10 06:57:00,